Location: Katowice
(50.2611°N, 19.0242°E)
Time: 04:47:09
(UTC+02:00)

Explorer 7 - Pass Details

Date: 25 August 2019
Orbit: 485 x 680 km, 50.3° (Epoch: 16 September)

Event Time Altitude Azimuth Distance (km) Brightness Sun altitude
Rises 11:42:59 0° 264° (W) 2,989 10.4 48.4°
Reaches altitude 10° 11:45:23 10° 265° (W) 2,055 9.7 48.6°
Maximum altitude 11:50:08 89° 325° (NW) 632 8.0 48.9°
Drops below altitude 10° 11:54:37 10° 86° (E) 1,941 9.9 49.1°
Sets 11:56:50 0° 87° (E) 2,810 10.6 49.2°
